C/2010 U3 ( Boattini )

Japanese version
Home page
Updated on December 15, 2011

---------------------------------------------------------------------

* Profile

Discovery Date October 31, 2010
Magnitude 19.4 mag
Discoverer A. Boattini (Mt. Lemmon)

* Pictures

* Orbital Elements

Epoch 2019 Mar. 18.0 TT = JDT 2458560.5
T 2019 Mar. 1.12867 TT                                  MPC
q   8.4506854            (2000.0)            P               Q
z  +0.0003754      Peri.   88.09579     -0.36216559     -0.74299806
 +/-0.0000684      Node    43.06718     +0.07245106     -0.62444501
e   0.9968274      Incl.   55.51214     +0.92929378     -0.24087822
From 112 observations 2010 Oct. 31-2011 Nov. 20, mean residual 0".6.

* Finding Charts

* Magnitudes Graph

        m1 = 0.5 + 5 log d + 10.0 log r

---------------------------------------------------------------------

The orbital elements are published on M.P.E.C. 2011-W48.
The charts are made with StellaNavigator Ver.8 (AstroArts).
The magnitudes graphs are made with Comet for Windows.

---------------------------------------------------------------------

Copyright(C) Seiichi Yoshida (comet@aerith.net). All rights reserved.